Location: Heelsen
(53.0061°N, 9.5932°E)
Time: 13:05:10
(UTC+00:00)

Daily predictions for brighter satellites

Satellite Brightness Start Highest point End
(mag) Time Altitude Azimuth Time Altitude Azimuth Time Altitude Azimuth
Tsikada Rocket 4.0 19:43:38 10° N 19:49:50 72° ENE 19:55:58 10° SSE
Cosmos 1758 Rocket 4.2 19:46:26 10° N 19:50:36 41° ENE 19:54:47 10° SE
Meteor 1-27 4.2 19:45:39 10° S 19:51:15 73° E 19:56:50 10° NNE
ADEOS 3.8 19:46:46 10° S 19:51:59 74° WSW 19:57:13 10° NNW
Cosmos 2278 4.3 19:46:42 10° NNW 19:52:15 47° NE 19:57:44 10° ESE
Cosmos 2084 Rocket 4.1 19:49:50 10° WNW 19:53:52 47° SW 19:57:56 10° SSE
USA 306 1.9 19:51:30 10° SW 19:54:40 49° SSE 19:56:52 10° E
Cosmos 1302 Rocket 4.0 19:50:03 10° S 19:55:09 63° ESE 20:00:18 10° NNE
SL-16 R/B 2.5 19:51:45 10° NNW 19:57:23 60° NE 20:02:59 10° SE
CZ-4B R/B 3.4 19:55:06 10° SE 19:58:11 33° ENE 20:01:22 10° N
Cosmos 2016 Rocket 4.0 19:54:44 10° S 20:00:59 84° E 20:07:11 10° NNE
Cosmos 724 4.3 19:55:03 10° SW 20:01:03 80° SE 20:06:59 10° NE
CZ-4C R/B 2.1 19:56:45 10° SW 20:01:10 79° NW 20:06:58 10° NE
SKYMED 3 4.3 19:57:52 10° NNE 20:01:51 85° ESE 20:05:49 10° SSW
SL-08 R/B 3.3 19:57:10 10° NNE 20:02:01 70° ESE 20:06:45 10° S
Helios 1A Rocket 3.2 20:07:23 10° N 20:10:28 50° WNW 20:13:30 10° SW
COSMOS 2406 3.7 20:06:01 10° S 20:11:18 40° ESE 20:16:36 10° NE
Cosmos 1743 4.0 20:09:52 10° NNW 20:12:32 29° W 20:15:12 10° SSW
Terra 3.0 20:09:12 10° SSW 20:13:38 40° W 20:18:05 10° NNW
Cosmos 1980 Rocket 3.7 20:09:00 10° NW 20:14:00 33° WSW 20:19:00 10° SSW
Meteor 1-20 Rocket 4.3 20:09:14 10° N 20:14:48 65° ENE 20:20:25 10° SSE
YAOGAN 11 4.2 20:10:30 10° NNE 20:14:54 62° ESE 20:19:19 10° S
Cosmos 1602 Rocket 4.2 20:10:59 10° N 20:15:05 41° ENE 20:18:56 11° SE
NOSS 3-3 (C) 3.9 20:11:15 10° SSW 20:16:19 49° ESE 20:22:20 10° NE
CZ-4 R/B 3.8 20:14:21 10° SW 20:16:54 18° W 20:19:28 10° NW
USA 245 4.3 20:14:04 10° SSE 20:19:57 76° ENE 20:25:29 10° NNW
Cosmos 2333 Rocket 2.3 20:17:03 10° NNW 20:22:46 78° ENE 20:28:05 12° SE
Cosmos 1933 3.9 20:19:19 10° SSE 20:22:47 35° E 20:26:17 10° NNE
NOSS 3-4 (A) 3.9 20:21:02 10° NW 20:27:30 78° NE 20:34:49 11° SE
Cosmos 44 Rocket 4.3 20:23:05 10° WSW 20:28:07 55° NW 20:33:16 10° NE
NOSS 3-4 (C) 3.9 20:21:40 10° NW 20:28:09 78° NE 20:35:28 11° SE
Cosmos 2061 Rocket 4.0 20:25:09 10° S 20:31:23 88° ESE 20:37:45 10° N
Cosmos 1626 Rocket 3.6 20:27:25 10° NNW 20:31:48 80° W 20:36:10 10° S
Cosmos 1782 3.7 20:29:17 10° SSW 20:32:39 43° WNW 20:36:04 10° N
Cosmos 1805 3.6 20:29:52 10° N 20:32:57 37° ENE 20:35:11 16° SE
ATLAS 2AS CENTAUR R/B 4.1 20:31:51 10° W 20:38:19 41° NNW 20:44:43 10° NE
SPOT 3 Rocket 3.6 20:33:28 10° SSE 20:38:33 86° WSW 20:43:43 10° NNW
Cosmos 2098 Rocket 3.8 20:35:17 13° SSE 20:39:06 36° E 20:42:58 10° NNE
Cosmos 2360 Rocket 2.4 20:34:53 10° NNW 20:40:34 66° NE 20:45:21 15° SE
Cosmos 1607 4.1 20:35:23 10° SW 20:41:34 79° NW 20:47:54 10° NE
Ariane Rocket 3.0 20:37:06 12° SSE 20:41:44 82° ENE 20:46:49 10° NNW
Cosmos 220 Rocket 4.5 20:39:51 12° S 20:43:13 36° ESE 20:47:00 10° NE
Meteor 1-25 Rocket 4.2 20:41:12 10° NNW 20:46:56 84° ENE 20:51:51 14° SSE
Cosmos 1606 Rocket 4.3 20:49:16 17° SSE 20:52:06 36° E 20:56:04 10° NNE
Cosmos 2151 3.2 20:49:31 10° NNW 20:53:37 64° W 20:57:14 13° S
Helios 1B rocket 4.0 20:52:03 11° ESE 20:54:15 19° ENE 20:56:44 10° NNE
Okean 1 4.2 20:52:40 19° SE 20:54:19 27° E 20:57:24 10° NNE
Cosmos 2219 Rocket 2.6 20:49:04 10° NNW 20:54:40 56° NE 20:59:14 15° SE
Okean O Rocket 3.2 20:54:04 10° SSW 20:57:50 29° W 21:01:37 10° NNW
Cosmos 1726 Rocket 4.3 20:59:17 19° SE 21:01:22 31° E 21:04:58 10° NNE
Cosmos 1461 2.5 20:59:28 10° SSW 21:03:06 57° SE 21:06:44 10° NE
CZ-2C R/B 2.0 21:01:38 23° S 21:03:12 73° WSW 21:05:58 10° NNW
Cosmos 990 Rocket 4.3 20:58:58 10° NNW 21:04:04 56° ENE 21:07:49 18° SE
RESURS DK-1 4.3 21:02:27 10° NNW 21:05:33 21° NE 21:08:39 10° E
Okean 1-7 Rocket 3.6 21:03:16 10° N 21:07:45 80° ENE 21:10:52 20° SSE
BREEZE-M DEB (TANK) 4.1 20:58:58 10° WSW 21:11:15 55° S 21:16:13 10° E
Cosmos 2322 Rocket 2.2 21:05:59 10° NNW 21:11:40 78° WSW 21:15:45 20° SSE
Cosmos 2034 Rocket 4.4 21:07:11 17° SSE 21:11:49 48° E 21:17:52 10° NNE
CZ-4B R/B 3.9 21:07:48 14° S 21:11:50 54° WSW 21:16:37 10° NNW
USA 186 4.2 21:10:41 10° WSW 21:11:59 13° W 21:13:18 10° WNW
Cosmos 1437 Rocket 3.0 21:10:06 10° SSW 21:13:37 61° WNW 21:17:12 10° N
Cosmos 1544 Rocket 4.2 21:09:33 10° SSW 21:13:49 55° WNW 21:18:05 10° N
Cosmos 1777 Rocket 4.1 21:10:16 10° NNW 21:15:31 76° WSW 21:19:08 20° SSE
Cosmos 2082 Rocket 3.3 21:11:51 10° WSW 21:17:22 47° NW 21:22:54 10° NNE
USA 306 1.1 21:19:07 10° W 21:21:38 62° N 21:21:47 58° NNE
Cosmos 1503 Rocket 4.0 21:17:22 10° NNW 21:22:36 83° WSW 21:25:58 22° SSE
ISS -3.9 21:21:45 10° W 21:25:05 71° S 21:27:26 18° E
Nadezhda 4 Rocket 4.0 21:21:39 10° NNW 21:27:47 79° W 21:32:26 18° S
Cosmos 44 3.7 21:23:34 10° NW 21:28:59 69° NE 21:32:52 19° SE
Cosmos 2237 Rocket 4.0 21:24:37 10° NNW 21:29:18 25° NE 21:33:56 10° E
Meteor 2-10 4.4 21:25:46 10° NNW 21:31:29 70° W 21:35:38 19° S
Cosmos-2242 3.7 21:30:18 25° SE 21:31:58 36° E 21:35:46 10° NNE
USA 290 2.2 21:33:40 35° S 21:34:40 55° ESE 21:37:45 10° NE
NOSS 3-3 (A) 4.4 21:30:20 10° WSW 21:35:44 63° NW 21:42:21 10° NE
Cosmos 1354 Rocket 4.0 21:30:57 10° NNW 21:36:15 90° S 21:39:24 25° SSE
Cosmos 1707 3.0 21:36:03 29° ESE 21:36:15 29° E 21:38:47 10° NNE
COSMOS 2428 3.5 21:32:55 10° NNW 21:38:25 45° NE 21:42:51 15° ESE
SL-16 R/B 3.5 21:36:16 10° NW 21:41:10 31° WSW 21:45:09 14° SSW
Cosmos 1825 Rocket 3.9 21:37:50 10° NNW 21:42:07 58° W 21:44:44 22° SSW
Cosmos 2195 Rocket 4.5 21:39:44 10° NNW 21:46:00 83° W 21:50:09 22° S
Cosmos 372 Rocket 4.3 21:42:25 10° NNW 21:47:29 58° ENE 21:50:33 23° SE
Cosmos 1953 Rocket 3.5 21:43:07 10° NNW 21:47:30 84° W 21:49:43 28° S
CZ-4C R/B 4.0 21:45:39 10° WNW 21:50:13 34° NNW 21:56:03 10° NE
Cosmos 2026 Rocket 4.0 21:44:19 10° N 21:50:45 89° W 21:54:55 23° S
Cosmos 1271 Rocket 3.9 21:52:42 21° ESE 21:53:05 22° E 21:55:44 10° NE
COSMOS 2406 4.2 21:49:57 10° SW 21:55:31 49° NW 22:01:07 10° NNE
Cosmos 2221 4.0 21:54:54 20° ESE 21:56:06 22° E 21:59:22 10° NE
Aureole 1 Rocket 3.9 21:51:13 10° NNW 21:56:46 87° ENE 22:00:52 25° SSE
Cosmos 2058 Rocket 3.1 21:57:50 31° SSE 21:59:42 59° E 22:03:58 10° NNE
Cosmos 1766 2.7 21:57:58 10° NNW 22:01:12 81° WSW 22:02:02 46° S
Cosmos 540 Rocket 3.4 21:58:20 22° SSW 22:01:38 73° ESE 22:06:46 10° NNE
Cosmos 1937 Rocket 4.1 22:00:30 10° NNW 22:05:30 48° ENE 22:08:43 21° ESE
Cosmos 1842 3.5 22:05:49 33° ESE 22:06:05 34° E 22:09:00 10° NNE
Cosmos 2333 Rocket 3.9 22:02:06 10° NW 22:06:29 23° WSW 22:10:06 13° SSW
Spot 4 4.1 22:07:43 28° SE 22:10:08 62° ENE 22:14:52 10° N
Geosat 3.9 22:05:57 10° NNE 22:11:00 82° ESE 22:14:39 19° SSW
Cosmos 468 Rocket 4.2 22:10:44 29° S 22:13:14 54° ESE 22:18:22 10° NNE
ARIANE 5 R/B 2.8 22:11:52 31° SE 22:13:53 65° ENE 22:18:20 10° N
ALOS 2 3.0 22:13:10 29° SE 22:15:10 56° ENE 22:19:29 10° N
Cosmos 1833 4.1 22:11:32 17° SSW 22:16:02 87° ESE 22:21:43 10° NNE
Cosmos 2297 Rocket 3.8 22:17:12 17° ESE 22:18:42 19° E 22:22:29 10° ENE
Cosmos 1536 2.7 22:16:37 10° NNW 22:20:16 64° W 22:21:26 39° SSW
Meteor 2-6 Rocket 4.5 22:18:01 28° S 22:21:13 64° E 22:27:06 10° NNE
Cosmos 2360 Rocket 3.5 22:19:24 10° NW 22:24:08 28° WSW 22:27:05 18° SSW
Cosmos 2322 3.7 22:18:25 10° NNW 22:24:10 89° ENE 22:27:17 28° SSE
Helios 1A 3.2 22:21:00 10° N 22:24:53 60° WNW 22:26:53 26° SW
Helios 1B rocket 2.6 22:25:59 36° SW 22:26:56 46° W 22:30:21 10° NNW
CSL-04 DEB 4.4 22:27:08 39° SSW 22:28:08 53° WSW 22:31:43 10° NNW
USA 234 3.8 22:23:48 10° ENE 22:29:43 35° SE 22:32:06 27° S
ATLAS 2AS CENTAUR R/B 4.3 22:24:37 10° WNW 22:30:48 35° N 22:36:56 10° ENE
PSLV R/B 4.2 22:29:22 10° NNE 22:33:27 42° E 22:34:43 33° SE
Cosmos 1092 Rocket 4.4 22:30:39 10° NNW 22:36:36 53° W 22:40:16 23° SSW
Cosmos 1898 Rocket 3.4 22:32:08 10° NNW 22:37:21 82° WSW 22:39:45 33° SSE
Cosmos 2219 Rocket 3.2 22:33:21 10° NW 22:38:22 33° WSW 22:40:55 23° SSW
SeaSat 1 3.7 22:34:43 10° ESE 22:39:10 36° NE 22:43:38 10° NNW
Cosmos 1470 2.3 22:36:27 10° NNW 22:39:46 74° W 22:40:17 57° SSW
Cosmos 1763 Rocket 4.0 22:35:26 14° SW 22:39:56 57° WNW 22:45:09 10° NNE
RESURS DK-1 2.2 22:39:22 10° NW 22:43:21 72° WSW 22:44:26 45° S
TSX-5 4.0 22:45:59 10° NW 22:48:56 38° WSW 22:48:57 38° WSW
Cosmos 1975 2.5 22:47:03 10° NNW 22:50:45 75° W 22:51:35 50° S
Cosmos 2322 Rocket 4.2 22:51:29 10° WNW 22:54:47 16° W 22:57:32 11° SW
MetOp-A 3.9 22:53:43 32° SSE 22:55:58 72° ENE 23:00:39 10° NNW
NOSS 0 Rocket 3.9 22:50:35 10° NW 22:56:47 79° WSW 23:00:06 29° SSE
NOSS 8 (H) 4.0 22:55:10 10° NW 22:58:03 77° NE 22:58:24 64° ESE
SL-16 R/B 3.8 22:56:01 10° NNW 23:01:05 31° NE 23:06:07 10° ESE
Lacrosse 4 Rocket 3.3 23:01:08 16° ESE 23:01:08 16° ESE 23:03:36 10° ENE
ISS -2.4 22:58:32 10° W 23:00:22 26° WSW 23:00:22 26° WSW
SAR-Lupe-2 3.4 23:02:14 54° SW 23:02:40 61° WSW 23:05:59 10° NNW
Meteor 2-9 Rocket 4.4 23:02:44 10° NNW 23:08:00 57° W 23:10:28 31° SSW
Cosmos 1707 4.4 23:07:32 14° W 23:08:33 16° WNW 23:10:25 10° NNW
CZ-2C R/B 4.1 23:05:37 10° N 23:09:59 56° WNW 23:12:13 27° SW
Cosmos 841 Rocket 3.4 23:09:02 33° SSW 23:11:24 80° ESE 23:16:40 10° NNE
Cosmos 1812 Rocket 3.5 23:10:37 40° S 23:12:10 88° E 23:16:37 10° NNE
Intercosmos 24 3.8 23:09:10 10° N 23:13:17 72° ENE 23:14:16 45° SSE
Cosmos 2237 Rocket 2.2 23:08:26 10° NNW 23:14:10 85° ENE 23:17:27 26° SE
Cosmos 1980 3.6 23:12:32 10° NNW 23:18:13 86° WSW 23:21:16 29° SSE
Cosmos 2279 Rocket 4.3 23:14:25 24° SSW 23:18:15 60° WNW 23:24:29 10° N
Meteor 1-11 Rocket 3.8 23:13:05 10° NNW 23:18:46 70° W 23:21:21 33° S
CZ-2C R/B 2.6 23:18:46 31° SSE 23:21:22 84° ENE 23:26:36 10° NNW
NOSS 8 (E) 3.9 23:18:43 10° NW 23:21:38 89° ENE 23:21:51 76° SE
COSMOS 2428 3.3 23:17:19 10° NW 23:22:40 43° WSW 23:24:48 30° SSW
ACS3 Solar Sail 2.9 23:19:53 10° NNE 23:25:11 32° E 23:28:30 19° SE
Meteor 2-4 Rocket 4.1 23:23:24 29° SSE 23:25:50 50° E 23:31:11 10° NNE
Meteor 1-10 Rocket 4.3 23:23:16 31° SSW 23:26:18 86° WNW 23:32:18 10° NNE
Cosmos 1271 Rocket 3.8 23:26:03 25° WSW 23:27:08 31° WNW 23:30:13 10° N
Cosmos 2227 Rocket 3.5 23:26:17 21° SE 23:28:27 26° ESE 23:33:05 10° NE
Meteor 2-20 4.4 23:29:37 31° S 23:32:48 89° E 23:38:56 10° NNE
Cosmos 2221 3.2 23:31:11 29° SW 23:32:52 45° WNW 23:36:55 10° N
Cosmos 192 4.5 23:30:29 10° NNW 23:35:27 73° ENE 23:38:13 26° SE
NOSS 8 (F) 3.9 23:34:05 10° NW 23:36:57 73° SW 23:36:57 73° SW
GP-B 3.3 23:32:48 10° N 23:37:07 59° W 23:38:41 36° SSW
Cosmos 1238 Rocket 2.9 23:37:44 44° SSE 23:38:53 70° E 23:43:12 10° NNE
BREEZE-M DEB (TANK) 4.4 23:24:56 10° SW 23:39:10 39° SSE 23:43:55 10° E
CZ-4C R/B 4.2 23:34:45 10° NW 23:39:58 34° NNE 23:46:35 10° ENE
Cosmos 1842 Rocket 4.3 23:38:31 30° SE 23:40:08 42° E 23:44:19 10° NNE
Cosmos 2263 Rocket 3.8 23:37:50 16° SE 23:40:13 21° ESE 23:44:18 10° NE
Meteor 1-27 Rocket 3.7 23:39:18 31° S 23:42:13 86° ESE 23:47:59 10° NNE
Cosmos 2266 Rocket 4.4 23:39:01 10° NNW 23:44:48 50° W 23:47:46 28° SSW
Cosmos 1937 Rocket 4.4 23:42:39 10° NW 23:47:12 32° WSW 23:48:46 27° SW
ARIANE 5 R/B 4.4 23:49:14 16° WSW 23:50:38 19° W 23:53:47 10° NW
Sich 1 3.4 23:46:41 10° N 23:50:48 55° ENE 23:52:43 29° SE
ALOS 2 4.2 23:50:33 19° WSW 23:51:50 21° W 23:55:12 10° NW
Landsat 5 3.4 23:49:29 10° NNE 23:53:36 71° ESE 23:54:53 41° S
